CZ-6A DEB, 55514

Orbit data source: Space-Track

CZ-6A DEB, 55514 is space debris in SSO originally from a launch on Fri, 11 Nov 2022 UTC launched from the Taiyaun Space Center, China (TSC). Debris objects in space refer to the collection of defunct objects orbiting the Earth. Examples of debris include non-operational satellites, rocket bodies, and fragments generated from explosions, collisions, or faulty payload assembly.

Loading next visibility...
Identifier
55514, 2022-151XL
Orbit
SSO
Country
Flag of CNCN / PRC
Related business
Manufacturer
SAST
Mission
Spacecraft
Bus & Motor
Unknown
Mass
Unknown
Launch date (UTC)
2022-11-11 (3 years ago)
Launch vehicle
Unknown
Launch site
Taiyaun Space Center, China (TSC)
Object type
Payload
Rocket body
Debris
Shape & HBR
Unknown shape, 0.1 m
Radar Cross Section
Small (<0.1 m²)

Expand to show TLE details & history
Last TLE update: 10 hours ago

TLE from 10 hours ago
0 CZ-6A DEB
1 55514U 22151XL  26130.44022794  .00002552  00000-0  13020-2 0  9997
2 55514  98.8549 125.1358 0084231 107.1530 253.8887 14.14728815175718
Epoch: 2026-05-10T10:33Z
TLE epoch observation values (Epoch: 2026-05-10T10:33:55.694Z)
Latitude
-0.00002°
Longitude
98.41047°
Altitude
863.492 km
Speed
7.412 km/s
True Right ascension
08h 20m 32s
True Declination
0° 00' 00"
Sunlit
Object was in daylight at epoch
Visualization orbit readout
Latitude
Unknown
Longitude
Unknown
Altitude
Unknown
Speed
Unknown
Apparent Right ascension
Unknown
Apparent Declination
Unknown
Sunlit
N/A
Visualization observer readout
Local Sidereal Time
04:34:32
Azimuth
Unknown
Elevation
Unknown
Doppler factor
Unknown
Orbital elements
Apogee altitude
901.21 km
Perigee altitude
779.605 km
Semi-major axis
7,218.544 km
Eccentricity
0.00842
Inclination
98.8549°
RAAN
125.1358°
Arg. of periapsis
107.153°
True anomaly
252.96414°
Mean anomaly
253.8887°
Eccentric anomaly
253.42614°
Mean motion
3.5389 °/min
Orbital period
101.73 mins
BSTAR
0.001302
Loading maneuver chart data...
Computing Atmospheric mass density...
Loading historical data...
Loading historical data...
Loading historical data...
Loading historical data...
Loading historical data...
Loading historical data...
Loading historical data...

Documentation

Showing up to 5 results
|